TimeCST,TemperatureF,Dew PointF,Humidity,Sea Level PressureIn,VisibilityMPH,Wind Direction,Wind SpeedMPH,Gust SpeedMPH,PrecipitationIn,Events,Conditions,WindDirDegrees,DateUTC
12:11 AM,1.4,-4.0,78,30.24,3.0,NW,12.7,20.7,N/A,,Haze,320,2013-01-21 06:11:00
12:31 AM,-0.4,-4.0,85,30.23,5.0,NW,8.1,18.4,N/A,,Scattered Clouds,310,2013-01-21 06:31:00
12:51 AM,-0.4,-5.8,78,30.23,5.0,NW,10.4,17.3,N/A,,Haze,310,2013-01-21 06:51:00
1:11 AM,-0.4,-7.6,72,30.25,10.0,WNW,13.8,23.0,N/A,,Clear,300,2013-01-21 07:11:00
1:31 AM,-2.2,-9.4,71,30.25,10.0,NW,11.5,23.0,N/A,,Clear,310,2013-01-21 07:31:00
1:51 AM,-2.2,-7.6,78,30.25,7.0,NW,10.4,19.6,N/A,,Clear,310,2013-01-21 07:51:00
2:11 AM,-2.2,-7.6,78,30.26,5.0,NW,9.2,23.0,N/A,,Haze,310,2013-01-21 08:11:00
2:31 AM,-2.2,-9.4,71,30.26,10.0,NW,13.8,23.0,N/A,,Clear,310,2013-01-21 08:31:00
2:51 AM,-2.2,-9.4,71,30.25,10.0,NW,17.3,25.3,N/A,,Clear,310,2013-01-21 08:51:00
3:11 AM,-2.2,-7.6,78,30.25,4.0,NW,9.2,18.4,N/A,,Haze,310,2013-01-21 09:11:00
3:31 AM,-2.2,-7.6,78,30.25,3.0,NW,11.5,19.6,N/A,,Haze,310,2013-01-21 09:31:00
3:51 AM,-2.2,-9.4,71,30.25,7.0,NW,13.8,23.0,N/A,,Clear,310,2013-01-21 09:51:00
4:11 AM,-5.8,-9.4,84,30.25,7.0,NW,9.2,23.0,N/A,,Clear,310,2013-01-21 10:11:00
4:31 AM,-5.8,-14.8,65,30.26,10.0,NW,15.0,25.3,N/A,,Clear,310,2013-01-21 10:31:00
4:51 AM,-7.6,-14.8,71,30.26,10.0,NW,10.4,19.6,N/A,,Clear,310,2013-01-21 10:51:00
5:11 AM,-7.6,-14.8,71,30.26,10.0,WNW,15.0,26.5,N/A,,Clear,300,2013-01-21 11:11:00
5:31 AM,-7.6,-14.8,71,30.26,10.0,WNW,13.8,20.7,N/A,,Clear,300,2013-01-21 11:31:00
5:51 AM,-7.6,-14.8,71,30.26,10.0,NW,11.5,23.0,N/A,,Clear,310,2013-01-21 11:51:00
6:11 AM,-9.4,-16.6,71,30.26,10.0,WNW,15.0,21.9,N/A,,Clear,300,2013-01-21 12:11:00
6:31 AM,-9.4,-16.6,71,30.27,10.0,NW,12.7,21.9,N/A,,Clear,310,2013-01-21 12:31:00
6:51 AM,-9.4,-16.6,71,30.27,10.0,WNW,12.7,23.0,N/A,,Clear,300,2013-01-21 12:51:00
7:11 AM,-9.4,-16.6,71,30.27,10.0,WNW,9.2,19.6,N/A,,Clear,300,2013-01-21 13:11:00
7:31 AM,-9.4,-16.6,71,30.27,10.0,NW,10.4,17.3,N/A,,Clear,310,2013-01-21 13:31:00
7:51 AM,-9.4,-16.6,71,30.27,10.0,NW,9.2,19.6,N/A,,Clear,310,2013-01-21 13:51:00
8:11 AM,-9.4,-14.8,77,30.27,10.0,WNW,16.1,25.3,N/A,,Clear,300,2013-01-21 14:11:00
8:31 AM,-7.6,-14.8,71,30.28,10.0,NW,10.4,20.7,N/A,,Clear,310,2013-01-21 14:31:00
8:51 AM,-7.6,-14.8,71,30.28,10.0,WNW,15.0,24.2,N/A,,Clear,300,2013-01-21 14:51:00
9:11 AM,-7.6,-14.8,71,30.28,10.0,NW,10.4,21.9,N/A,,Clear,310,2013-01-21 15:11:00
9:31 AM,-5.8,-13.0,71,30.28,10.0,NW,10.4,18.4,N/A,,Clear,310,2013-01-21 15:31:00
9:51 AM,-5.8,-14.8,65,30.29,10.0,WNW,11.5,24.2,N/A,,Clear,290,2013-01-21 15:51:00
10:11 AM,-5.8,-13.0,71,30.30,10.0,WNW,12.7,18.4,N/A,,Clear,300,2013-01-21 16:11:00
10:31 AM,-4.0,-11.2,71,30.30,5.0,WNW,11.5,19.6,N/A,,Haze,300,2013-01-21 16:31:00
10:51 AM,-2.2,-11.2,66,30.31,5.0,WNW,12.7,18.4,N/A,,Haze,300,2013-01-21 16:51:00
11:12 AM,-2.2,-9.4,71,30.30,4.0,WNW,12.7,21.9,N/A,,Haze,290,2013-01-21 17:12:00
11:31 AM,-2.2,-9.4,71,30.29,4.0,West,12.7,19.6,N/A,,Haze,280,2013-01-21 17:31:00
11:51 AM,-2.2,-9.4,71,30.28,4.0,WNW,15.0,21.9,N/A,,Haze,290,2013-01-21 17:51:00
12:11 PM,-0.4,-9.4,66,30.27,4.0,West,13.8,23.0,N/A,,Haze,280,2013-01-21 18:11:00
12:31 PM,-0.4,-7.6,72,30.26,4.0,WNW,9.2,20.7,N/A,,Haze,290,2013-01-21 18:31:00
12:51 PM,-0.4,-9.4,66,30.25,5.0,WNW,15.0,23.0,N/A,,Haze,290,2013-01-21 18:51:00
1:11 PM,-0.4,-9.4,66,30.24,7.0,West,9.2,20.7,N/A,,Clear,280,2013-01-21 19:11:00
1:31 PM,1.4,-7.6,66,30.24,7.0,WNW,12.7,21.9,N/A,,Clear,290,2013-01-21 19:31:00
1:51 PM,1.4,-7.6,66,30.23,10.0,WNW,13.8,21.9,N/A,,Clear,290,2013-01-21 19:51:00
2:11 PM,1.4,-7.6,66,30.23,10.0,WNW,12.7,23.0,N/A,,Clear,300,2013-01-21 20:11:00
2:31 PM,1.4,-7.6,66,30.23,10.0,WNW,15.0,19.6,N/A,,Clear,290,2013-01-21 20:31:00
2:51 PM,1.4,-7.6,66,30.23,10.0,WNW,12.7,20.7,N/A,,Clear,300,2013-01-21 20:51:00
3:11 PM,1.4,-7.6,66,30.23,10.0,WNW,13.8,24.2,N/A,,Clear,300,2013-01-21 21:11:00
3:31 PM,1.4,-7.6,66,30.24,10.0,WNW,12.7,19.6,N/A,,Clear,300,2013-01-21 21:31:00
3:51 PM,1.4,-7.6,66,30.24,10.0,WNW,10.4,24.2,N/A,,Clear,300,2013-01-21 21:51:00
4:11 PM,1.4,-7.6,66,30.24,10.0,WNW,10.4,20.7,N/A,,Clear,300,2013-01-21 22:11:00
4:31 PM,1.4,-7.6,66,30.24,10.0,WNW,11.5,20.7,N/A,,Clear,290,2013-01-21 22:31:00
4:51 PM,1.4,-7.6,66,30.24,10.0,WNW,11.5,20.7,N/A,,Clear,290,2013-01-21 22:51:00
5:11 PM,-0.4,-7.6,72,30.24,10.0,WNW,10.4,18.4,N/A,,Clear,290,2013-01-21 23:11:00
5:31 PM,-0.4,-7.6,72,30.24,10.0,WNW,10.4,17.3,N/A,,Clear,300,2013-01-21 23:31:00
5:51 PM,-0.4,-7.6,72,30.24,10.0,WNW,10.4,17.3,N/A,,Clear,290,2013-01-21 23:51:00
6:11 PM,-0.4,-7.6,72,30.25,10.0,WNW,9.2,-,N/A,,Clear,300,2013-01-22 00:11:00
6:31 PM,-0.4,-7.6,72,30.25,10.0,NW,9.2,-,N/A,,Clear,310,2013-01-22 00:31:00
6:51 PM,-0.4,-7.6,72,30.25,10.0,WNW,6.9,-,N/A,,Clear,300,2013-01-22 00:51:00
7:11 PM,-0.4,-7.6,72,30.25,10.0,WNW,8.1,-,N/A,,Clear,300,2013-01-22 01:11:00
7:31 PM,-0.4,-7.6,72,30.25,10.0,NW,6.9,-,N/A,,Clear,310,2013-01-22 01:31:00
7:51 PM,-2.2,-7.6,78,30.25,10.0,NW,6.9,-,N/A,,Clear,310,2013-01-22 01:51:00
8:10 PM,-2.2,-7.6,78,30.25,10.0,WNW,5.8,-,N/A,,Clear,300,2013-01-22 02:10:00
8:31 PM,-2.2,-7.6,78,30.26,10.0,WNW,6.9,-,N/A,,Clear,300,2013-01-22 02:31:00
8:51 PM,-2.2,-7.6,78,30.26,10.0,WNW,4.6,-,N/A,,Clear,300,2013-01-22 02:51:00
9:10 PM,-2.2,-7.6,78,30.26,10.0,WNW,4.6,-,N/A,,Clear,300,2013-01-22 03:10:00
9:31 PM,-2.2,-7.6,78,30.26,10.0,WNW,4.6,-,N/A,,Clear,290,2013-01-22 03:31:00
9:51 PM,-2.2,-7.6,78,30.25,10.0,WNW,4.6,-,N/A,,Clear,290,2013-01-22 03:51:00
10:10 PM,-2.2,-7.6,78,30.26,10.0,West,5.8,-,N/A,,Clear,280,2013-01-22 04:10:00
10:31 PM,-2.2,-7.6,78,30.25,10.0,West,4.6,-,N/A,,Clear,270,2013-01-22 04:31:00
10:51 PM,-2.2,-5.8,85,30.25,10.0,WNW,4.6,-,N/A,,Clear,290,2013-01-22 04:51:00
11:11 PM,-2.2,-7.6,78,30.26,10.0,WNW,5.8,-,N/A,,Clear,290,2013-01-22 05:11:00
11:31 PM,-0.4,-5.8,78,30.26,10.0,WNW,6.9,-,N/A,,Clear,300,2013-01-22 05:31:00
11:51 PM,-0.4,-5.8,78,30.26,10.0,WNW,4.6,-,N/A,,Clear,290,2013-01-22 05:51:00